2021-022AF

Last updated on Thu Apr 22 2021 00:02:03 GMT+0000 (Coordinated Universal Time)

1 47961U 21022AF 21111.57473473 .00001570 00000-0 11232-3 0 9995 2 47961 97.5635 14.8682 0022221 140.6358 338.8212 15.05700915 3305
UTC large
Height (km)
Speed (km/s)
/
Latitude / Longitude
Inclination (degrees)
Orbital Period (minutes)
Azimuth
Elevation
Range (km)
Doppler Factor

Next 0 passes for location: London (51.5072 / 0.1276)

Sorry there are no passes over London.